This is the latest recevied weather packets stored in our database for station/object AE5HO. If no packets are shown the sender has not sent any weather packets the latest 10 day(s).
| Time | Temp. | Humidity | Pressure | Rain* | Wind** | Luminosity | Snow |
|---|---|---|---|---|---|---|---|
| 1788076826 | 28.33° C | 61% | 1015.3 hPa | 0 mm | - | 0 W/m² | - |
| 1788076521 | 28.89° C | 62% | 1015.3 hPa | 0 mm | - | 0 W/m² | - |
| 1788076216 | 28.89° C | 61% | 1015.3 hPa | 0 mm | - | 0 W/m² | - |
| 1788075912 | 29.44° C | 60% | 1015.3 hPa | 0 mm | - | 0 W/m² | - |
| 1788075608 | 29.44° C | 58% | 1015.2 hPa | 0 mm | - | 0 W/m² | - |
| 1788075304 | 30° C | 58% | 1015.3 hPa | 0 mm | - | 0 W/m² | - |
| 1788074998 | 29.44° C | 59% | 1015.4 hPa | 0 mm | - | 0 W/m² | - |
| 1788074694 | 29.44° C | 59% | 1015.5 hPa | 0 mm | - | 0 W/m² | - |
| 1788074394 | 29.44° C | 59% | 1015.3 hPa | 0 mm | - | 0 W/m² | - |
| 1788074089 | 28.89° C | 60% | 1015.4 hPa | 0 mm | - | 0 W/m² | - |
| 1788073787 | 29.44° C | 61% | 1015.5 hPa | 0 mm | - | 0 W/m² | - |
| 1788073482 | 29.44° C | 60% | 1015.3 hPa | 0 mm | - | 0 W/m² | - |
| 1788073182 | 29.44° C | 59% | 1015.3 hPa | 0 mm | - | 0 W/m² | - |
| 1788072881 | 29.44° C | 57% | 1015.6 hPa | 0 mm | - | 0 W/m² | - |
| 1788072579 | 29.44° C | 58% | 1015.4 hPa | 0 mm | - | 0 W/m² | - |
| 1788072275 | 30° C | 57% | 1015.3 hPa | 0 mm | - | 0 W/m² | - |
| 1788071975 | 30° C | 57% | 1015.5 hPa | 0 mm | - | 0 W/m² | - |
| 1788071674 | 29.44° C | 57% | 1015.1 hPa | 0 mm | - | 0 W/m² | - |
| 1788071374 | 29.44° C | 58% | 1015.5 hPa | 0 mm | - | 0 W/m² | - |
| 1788071073 | 28.89° C | 58% | 1015.6 hPa | 0 mm | - | 0 W/m² | - |
| 1788070768 | 28.89° C | 60% | 1015.6 hPa | 0 mm | - | 0 W/m² | - |
| 1788070463 | 28.89° C | 62% | 1015.4 hPa | 0 mm | - | 0 W/m² | - |
| 1788070160 | 28.89° C | 64% | 1015.4 hPa | 0 mm | - | 0 W/m² | - |
| 1788069856 | 29.44° C | 61% | 1015.4 hPa | 0 mm | - | 0 W/m² | - |
| 1788069551 | 30° C | 54% | 1015.5 hPa | 0 mm | - | 0 W/m² | - |
* Rain latest hour (hover to see other rain measurements)
** Current wind speed in m/s (hover to see current wind gust speed)